Location: Big Prairie
(40.6673°N, 82.0952°W)
Time: 20:13:16
(UTC+00:00)

ATLAS CENTAUR R/B - Pass Details

Date: 03 December 2021
Orbit: 211 x 5254 km, 57.3° (Epoch: 17 January)

Event Time Altitude Azimuth Distance (km) Brightness Sun altitude
Rises 22:22:37 0° 224° (SW) 7,225 9.1 -4.4°
Reaches altitude 10° 22:28:37 10° 225° (SW) 5,302 8.2 -5.5°
Maximum altitude 22:41:11 79° 313° (NW) 1,185 3.5 -7.6°
Drops below altitude 10° 22:46:01 10° 41° (NE) 2,160 4.3 -8.5°
Enters shadow 22:46:20 - 41° (NE) 2,284 4.4 -8.5°
